Location: Holbach
(51.5399°N, 10.6036°E)
Time: 05:50:06
(UTC+00:00)

USA 238 DEB - Pass Details

Date: 18 September 2020
Orbit: 1006 x 1206 km, 63.4° (Epoch: 15 October)

Event Time Altitude Azimuth Distance (km) Brightness Sun altitude
Rises 17:40:32 0° 310° (NW) 3,892 7.7 -3.3°
Reaches altitude 10° 17:43:16 10° 316° (NW) 2,963 6.9 -3.8°
Maximum altitude 17:50:07 50° 31° (NNE) 1,421 4.3 -4.8°
Drops below altitude 10° 17:57:17 10° 106° (ESE) 3,090 5.4 -5.9°
Enters shadow 17:58:12 - 108° (ESE) 3,397 5.7 -6.1°
